Phoenix, AZ

7:59 AM MST on July 22, 2017 (GMT -0700)
Phoenix Sky Harbor International

Weather History for KPHX - October, 2012

Change the Weather History Date:

Friday, October 12, 2012

  Actual Average Record
Temperature  
Mean Temperature 71 °F 78 °F  
Max Temperature 76 °F 90 °F 103 °F (1950)
Min Temperature 65 °F 66 °F 44 °F (1924)
Degree Days  
Heating Degree Days 0 0  
Month to date heating degree days 0 0  
Since 1 July heating degree days 0 0  
Cooling Degree Days 6 13  
Month to date cooling degree days 225 186  
Year to date cooling degree days 4716 4355  
Growing Degree Days 20 (Base 50)    
Moisture  
Dew Point 41 °F    
Average Humidity 35    
Maximum Humidity 47    
Minimum Humidity 23    
Precipitation  
Precipitation T in 0.02 in 0.32 in (1957)
Month to date precipitation T 0.23  
Year to date precipitation 3.36 6.15  
Snow  
Snow 0.00 in - - ()
Month to date snowfall 0.0  
Year to date snowfall 0.0  
Since 1 July snowfall 0.0  
Snow Depth 0.00 in    
Sea Level Pressure  
Sea Level Pressure 29.98 in    
Wind  
Wind Speed 8 mph (WSW)    
Max Wind Speed 20 mph    
Max Gust Speed 24 mph    
Visibility 10 miles    
Events Rain    
T = Trace of Precipitation, MM = Missing Value Source: NWS Daily Summary

Daily Weather History Graph

Daily Weather History Graph

Search for Another Location

Airport or City:

Trip Planner

Search our weather history database for the weather conditions in past years. The results will help you decide how hot, cold, wet, or windy it might be!

Date:

Astronomy

Oct. 12, 2012 Rise Set
Actual Time 6:30 AM MST 5:57 PM MST
Civil Twilight 6:05 AM MST 6:22 PM MST
Nautical Twilight 5:36 AM MST 6:51 PM MST
Astronomical Twilight 5:08 AM MST 7:19 PM MST
Moon 3:25 AM MST (10/12) 4:03 PM MST (10/12)
Length of Visible Light 12h 16m
Length of Day
11h 26m
Waning Crescent, 10% of the Moon is Illuminated
Oct 12
Waning Crescent
Oct 15
New
Oct 21
First Quarter
Oct 29
Full
Nov 6
Last Quarter

Hourly Weather History & Observations

Time (MST) Temp. Dew Point Humidity Pressure Visibility Wind Dir Wind Speed Gust Speed Precip Events Conditions
12:08 AM 75.2 °F 39.2 °F 27% 29.87 in 10.0 mi WSW 6.9 mph - 0.00 in Rain Light Rain
12:51 AM 73.0 °F 44.1 °F 35% 29.82 in 10.0 mi WSW 10.4 mph - 0.00 in   Overcast
1:51 AM 73.0 °F 46.0 °F 38% 29.83 in 10.0 mi WSW 9.2 mph - N/A   Mostly Cloudy
2:51 AM 73.4 °F 46.4 °F 38% 29.89 in 10.0 mi South 8.1 mph - N/A   Mostly Cloudy
3:51 AM 71.1 °F 46.9 °F 42% 29.85 in 10.0 mi South 8.1 mph - N/A   Mostly Cloudy
4:51 AM 70.0 °F 48.9 °F 47% 29.88 in 10.0 mi South 8.1 mph - N/A   Mostly Cloudy
5:51 AM 66.2 °F 42.8 °F 43% 29.96 in 10.0 mi West 17.3 mph 24.2 mph N/A   Scattered Clouds
7:51 AM 66.2 °F 42.8 °F 43% 30.01 in 10.0 mi WSW 8.1 mph - N/A   Mostly Cloudy
8:51 AM 66.9 °F 42.1 °F 40% 30.02 in 10.0 mi WSW 6.9 mph - N/A   Mostly Cloudy
9:51 AM 68.0 °F 42.1 °F 39% 30.03 in 10.0 mi Calm Calm - N/A   Mostly Cloudy
10:51 AM 73.0 °F 42.1 °F 33% 30.03 in 10.0 mi SSE 6.9 mph - N/A   Mostly Cloudy
11:51 AM 73.4 °F 41.0 °F 31% 30.06 in 10.0 mi West 11.5 mph - N/A   Scattered Clouds
12:51 PM 73.4 °F 37.4 °F 27% 30.06 in 10.0 mi West 10.4 mph 17.3 mph N/A   Partly Cloudy
1:51 PM 75.9 °F 37.0 °F 24% 30.00 in 10.0 mi SW 9.2 mph - N/A   Partly Cloudy
2:51 PM 75.0 °F 36.0 °F 24% 29.99 in 10.0 mi Variable 4.6 mph - N/A   Partly Cloudy
3:51 PM 73.4 °F 35.6 °F 25% 30.02 in 10.0 mi WNW 9.2 mph - N/A   Partly Cloudy
4:51 PM 75.0 °F 37.0 °F 25% 29.99 in 10.0 mi West 8.1 mph - N/A   Partly Cloudy
5:51 PM 73.0 °F 37.0 °F 27% 29.99 in 10.0 mi West 10.4 mph - N/A   Partly Cloudy
6:51 PM 71.6 °F 37.4 °F 29% 30.03 in 10.0 mi WSW 4.6 mph - N/A   Partly Cloudy
7:51 PM 72.0 °F 37.9 °F 29% 30.00 in 10.0 mi West 5.8 mph - N/A   Partly Cloudy
8:51 PM 71.1 °F 37.9 °F 30% 30.01 in 10.0 mi West 6.9 mph - N/A   Clear
9:51 PM 71.6 °F 39.2 °F 31% 30.06 in 10.0 mi WSW 5.8 mph - N/A   Clear
11:51 PM 69.8 °F 39.2 °F 33% 30.06 in 10.0 mi West 5.8 mph - N/A   Clear